Location: Unspecified
(50.0760°N, 14.4380°E)
Time: 08:55:09
(UTC+00:00)

Daily predictions for brighter satellites

Satellite Brightness Start Highest point End
(mag) Time Altitude Azimuth Time Altitude Azimuth Time Altitude Azimuth
CZ-3B DEB 4.3 19:47:42 10° W 19:58:04 75° NNW 20:11:15 10° ENE
Lacrosse 4 Rocket 3.8 19:57:39 10° WSW 20:01:31 31° NW 20:05:30 10° NNE
H-2A R/B 2.3 19:57:31 10° SSE 20:02:47 65° ENE 20:08:12 10° N
Cosmos 1725 Rocket 4.2 19:57:15 10° N 20:03:30 65° ENE 20:09:40 10° SSE
Cosmos 1802 Rocket 4.1 19:58:01 10° NNW 20:04:10 81° W 20:10:19 10° S
Cosmos 2263 Rocket 3.5 20:01:48 10° SSE 20:05:54 21° E 20:10:00 10° NE
Meteor 1-21 Rocket 4.3 20:00:14 10° S 20:05:54 88° E 20:11:31 10° NNE
Cosmos 1741 Rocket 4.4 20:03:04 10° SSW 20:08:23 73° WNW 20:13:42 10° NNE
Meteor 2-2 Rocket 4.4 20:03:35 10° N 20:09:22 80° ENE 20:15:15 10° SSE
ATLAS 5 CENTAUR R/B 1.9 20:05:16 10° SW 20:10:01 87° NW 20:15:20 10° NE
Cosmos 1356 Rocket 3.9 20:10:57 10° SSW 20:15:12 68° WNW 20:19:32 10° N
Cosmos 2058 4.0 20:20:05 10° SSE 20:23:44 30° E 20:27:25 10° NNE
Cosmos 1626 3.4 20:26:07 12° SE 20:28:54 25° E 20:32:01 10° NNE
Cosmos 1603 4.3 20:23:27 10° NW 20:28:57 52° WSW 20:34:22 10° S
RESURS DK-1 3.3 20:25:05 10° NW 20:29:01 41° WSW 20:32:56 10° S
Cosmos 1726 2.7 20:25:44 10° NNW 20:29:21 54° W 20:32:56 10° S
Cosmos 2016 Rocket 4.5 20:25:07 10° NNW 20:31:19 62° W 20:37:24 10° S
Cosmos 1300 3.0 20:27:37 10° NNW 20:31:27 68° W 20:35:15 10° S
Cosmos 1408 Rocket 4.0 20:29:45 10° SSW 20:34:02 63° WNW 20:38:21 10° N
SL-14 R/B 3.2 20:32:43 10° S 20:36:41 81° E 20:40:38 10° NNE
DMSP B5D2-2 4.3 20:32:02 10° NNE 20:37:11 54° E 20:42:17 10° S
Cosmos 1814 Rocket 4.5 20:33:30 10° NNW 20:38:46 59° WSW 20:43:58 10° S
Cosmos 1943 3.3 20:38:47 10° NNW 20:44:27 74° WSW 20:49:30 13° SSE
ARGOS 4.2 20:39:38 10° S 20:44:46 43° W 20:49:55 10° NNW
Cosmos 1328 3.9 20:41:27 10° S 20:45:29 84° W 20:49:34 10° N
Cosmos 371 Rocket 4.0 20:41:55 10° NNW 20:46:34 49° WSW 20:51:07 10° S
Cosmos 2151 3.1 20:44:44 11° S 20:48:47 60° E 20:53:04 10° NNE
Cosmos 841 Rocket 3.6 20:43:41 10° NNW 20:48:57 75° WSW 20:53:31 14° SSE
Cosmos 1486 Rocket 4.1 20:45:00 10° S 20:50:11 64° ESE 20:55:28 10° NNE
Cosmos 1763 Rocket 3.9 20:45:45 10° NNW 20:50:47 58° WSW 20:55:21 12° S
USA 234 3.3 20:44:43 10° ENE 20:51:10 58° SE 20:57:35 10° SW
ERBS 3.7 20:48:18 10° WNW 20:51:13 27° SW 20:53:20 15° S
Lacrosse 5 3.2 20:49:46 10° WNW 20:53:59 27° SW 20:57:45 12° S
Cosmos 1500 Rocket 3.6 20:49:53 10° S 20:54:21 81° E 20:58:50 10° NNE
SPOT 5 4.3 20:50:32 10° SSW 20:55:01 35° W 20:59:45 10° NNW
Cosmos 2233 Rocket 4.0 20:49:38 10° N 20:55:54 86° W 21:01:37 12° S
SPOT 1/Viking Rocket 4.4 20:53:06 10° S 20:58:01 45° W 21:02:59 10° NNW
Cosmos 1356 3.4 20:56:29 13° S 20:59:29 72° E 21:03:00 10° NNE
CARTOSAT-1 3.7 21:00:56 14° S 21:04:33 69° WSW 21:08:53 10° NNW
PSLV R/B 3.0 21:02:57 22° SSE 21:04:37 66° ENE 21:07:28 10° N
Cosmos 1455 2.3 21:01:03 10° N 21:04:56 67° ENE 21:07:35 19° SSE
Tiangong 1 2.8 21:07:28 10° SW 21:08:51 15° SSW 21:08:51 15° SSW
CZ-2C R/B 4.3 21:07:15 10° NE 21:10:50 18° E 21:13:32 13° ESE
Cosmos 1869 3.9 21:09:20 10° N 21:13:08 43° ENE 21:15:34 20° SE
Cosmos 1805 Rocket 4.1 21:10:45 19° SSE 21:13:31 42° E 21:17:38 10° NNE
Cosmos 1633 Rocket 4.2 21:16:38 18° SE 21:18:55 28° E 21:22:39 10° NNE
Cosmos 1151 Rocket 4.0 21:15:12 10° NNW 21:19:22 43° W 21:23:09 12° SSW
H-2A R/B 2.5 21:22:31 17° S 21:25:44 54° WSW 21:29:54 10° NNW
IGS 5A 4.3 21:22:29 15° SSW 21:25:44 44° W 21:29:45 10° NNW
CZ-4C R/B 3.6 21:23:35 21° SSE 21:26:25 76° ENE 21:30:52 10° N
Abrixas rocket 4.2 21:26:07 10° WSW 21:27:59 14° SW 21:28:12 14° SSW
Cosmos 2084 Rocket 3.4 21:25:54 10° NW 21:29:42 64° NE 21:32:23 18° ESE
CZ-4 R/B 3.8 21:25:37 10° NNE 21:30:32 77° ESE 21:34:17 17° S
Terra 2.7 21:27:21 14° SSW 21:31:14 42° W 21:35:46 10° NNW
Cosmos 1503 Rocket 3.9 21:31:25 12° SSW 21:36:12 81° ESE 21:41:24 10° NNE
Cosmos 1703 3.9 21:36:15 13° SSW 21:39:40 54° WNW 21:43:37 10° N
Cosmos 2285 Rocket 4.4 21:36:21 10° NNW 21:42:31 55° WSW 21:47:08 18° S
H-2A R/B 4.0 21:38:33 10° SW 21:42:41 22° W 21:46:53 10° NW
Cosmos 2242 Rocket 4.1 21:39:36 10° N 21:44:07 52° ENE 21:46:48 23° SE
CZ-4B R/B 3.6 21:42:15 10° NNE 21:47:35 87° ESE 21:51:40 17° SSW
Cosmos 2034 Rocket 4.0 21:41:47 10° N 21:48:12 82° E 21:52:35 21° SSE
Cosmos 2263 Rocket 2.4 21:43:41 10° SW 21:49:14 72° WNW 21:54:52 10° NNE
SL-19 R/B 4.0 21:48:29 31° SSW 21:49:32 51° WSW 21:52:26 10° NNW
Cosmos 540 Rocket 4.1 21:45:55 10° NNW 21:50:52 47° WSW 21:54:07 20° S
COSMOS 2406 3.3 21:47:05 10° NNW 21:52:47 79° ENE 21:56:41 21° SE
CZ-3B DEB 4.4 21:41:26 10° WNW 21:53:15 74° NNE 22:06:13 10° E
Cosmos 1891 Rocket 4.4 21:48:14 10° N 21:54:22 82° W 21:58:31 21° S
ATLAS 5 CENTAUR R/B 4.2 21:51:10 10° W 21:55:28 28° NNW 22:00:10 10° NE
Cosmos 968 Rocket 4.0 21:53:17 23° SSE 21:56:06 44° ESE 22:01:07 10° NE
SME Rocket 3.7 21:58:01 23° SSW 22:00:16 50° W 22:05:06 10° NNW
Cosmos 2082 Rocket 4.1 21:57:43 10° NNW 22:02:18 25° NE 22:06:53 10° E
Cosmos 1626 3.9 22:00:58 10° SW 22:04:12 27° WNW 22:07:27 10° N
Sich 1 3.0 22:09:00 24° SSW 22:11:33 76° W 22:15:51 10° N
CZ-2C R/B 3.3 22:09:40 24° SSE 22:13:23 87° ENE 22:19:03 10° NNW
CZ-4C R/B 2.4 22:12:52 23° S 22:16:02 51° ESE 22:21:55 10° NE
ALOS 2 2.6 22:18:43 29° SSE 22:20:59 85° ENE 22:25:24 10° NNW
CZ-4C R/B 4.4 22:20:42 19° ESE 22:22:11 27° ENE 22:25:00 10° N
SOZ 4.4 22:19:49 10° W 22:22:43 74° NNW 22:24:49 10° ENE
Cosmos 1844 Rocket 2.9 22:19:50 25° S 22:22:56 55° ESE 22:28:24 10° NE
Cosmos 1538 Rocket 4.0 22:17:43 10° NNW 22:23:08 83° WSW 22:26:16 26° SSE
SL-27 R/B 3.5 22:20:50 10° N 22:23:59 36° ENE 22:25:33 23° ESE
Cosmos 1634 Rocket 4.2 22:18:36 10° N 22:24:46 65° ENE 22:28:46 23° SSE
Cosmos 923 Rocket 4.4 22:26:33 10° NNW 22:31:44 59° ENE 22:35:13 20° SE
USA 234 3.7 22:27:49 10° ENE 22:34:18 67° NNW 22:40:46 10° WSW
In-Cosmos 22 Rocket 4.2 22:35:43 26° S 22:38:51 72° E 22:44:29 10° NNE
Cosmos 1862 Rocket 3.8 22:39:40 10° NNW 22:44:00 61° W 22:46:02 30° SSW
Cosmos 1933 3.7 22:40:31 10° NNW 22:44:33 54° W 22:46:16 30° SSW
Cosmos 1933 Rocket 3.5 22:47:19 30° SSW 22:49:28 80° WNW 22:53:51 10° N
Tsikada Rocket 4.3 22:46:50 20° SSW 22:51:21 65° WNW 22:57:40 10° N
CZ-2C R/B 2.7 22:46:24 10° NNE 22:51:46 76° WNW 22:55:03 23° SSW
SAR-Lupe-2 4.3 22:50:23 26° SE 22:52:01 46° ENE 22:55:29 10° N
Cosmos 773 Rocket 4.2 22:49:09 10° NNW 22:54:19 62° WSW 22:57:02 28° S
Cosmos 1633 Rocket 4.3 22:53:42 16° SW 22:56:38 33° WNW 23:00:38 10° N
Cosmos 1315 Rocket 2.7 22:59:19 35° S 23:00:53 89° ESE 23:04:51 10° NNE
Cosmos 2112 Rocket 4.2 22:56:26 10° NNW 23:01:43 70° ENE 23:05:17 21° SE
Abrixas 4.5 23:03:43 16° E 23:03:43 16° E 23:04:24 10° E
CZ-4B R/B 2.0 23:02:14 30° SE 23:03:41 55° ENE 23:07:13 10° N
Cosmos 1400 Rocket 3.6 23:02:39 23° SW 23:04:53 46° WNW 23:08:55 10° N
H-2A R/B 4.1 23:02:23 10° NE 23:06:12 26° E 23:08:15 19° SE
Meteor 2-10 Rocket 4.4 23:03:23 10° NNW 23:08:23 41° W 23:11:22 23° SSW
COSMOS 2487 4.3 23:05:27 10° N 23:08:32 26° ENE 23:11:13 12° ESE
Cosmos 1777 Rocket 3.9 23:07:46 26° SSW 23:10:46 87° ESE 23:16:02 10° NNE
Cosmos 489 Rocket 4.5 23:08:25 23° SSW 23:12:35 87° ESE 23:18:59 10° NNE
Cosmos 1782 3.2 23:09:11 10° N 23:13:12 57° ENE 23:15:10 27° SE
Aureole 1 Rocket 4.4 23:06:54 10° NNW 23:13:33 82° ENE 23:20:07 17° SSE
Cosmos 1680 Rocket 3.5 23:08:23 10° NNW 23:13:42 85° WSW 23:16:48 26° SSE
Cosmos 1892 2.7 23:13:22 35° SSW 23:14:57 78° W 23:18:53 10° N
Cosmos 2221 Rocket 3.6 23:11:00 10° N 23:15:29 83° E 23:17:39 30° SSE
Cosmos 1703 Rocket 3.6 23:11:13 10° NNW 23:15:43 73° W 23:17:47 31° S
Cosmos 1833 Rocket 3.1 23:10:34 10° NNW 23:16:13 62° ENE 23:21:08 14° SE
Cosmos 2278 Rocket 2.3 23:14:41 27° S 23:17:44 61° ESE 23:23:18 10° NE
Cosmos 1461 3.1 23:20:38 35° S 23:21:47 46° ESE 23:25:39 10° NE
SeaSat 1 4.1 23:19:44 10° ESE 23:24:05 32° NE 23:28:28 10° NNW
Cosmos 1844 3.8 23:20:35 20° SW 23:24:33 74° WNW 23:30:10 10° NNE
Cosmos 1346 Rocket 2.8 23:20:50 10° NNW 23:24:42 63° W 23:26:08 35° SSW
Cosmos 1340 4.1 23:24:55 10° N 23:28:21 31° ENE 23:30:51 16° SE
Okean 1-7 3.0 23:26:33 10° NNW 23:30:53 74° W 23:32:53 31° S
Cosmos 44 4.4 23:30:00 23° SSE 23:31:28 27° ESE 23:35:15 10° ENE
Cosmos 1606 2.7 23:28:10 10° N 23:32:04 80° E 23:33:45 32° SSE
Cosmos 2279 Rocket 4.1 23:28:03 10° NNW 23:34:17 69° W 23:38:07 25° S
Cosmos 1898 Rocket 4.5 23:33:45 21° SSE 23:36:28 35° ESE 23:41:13 10° NE
Cosmos 192 4.4 23:33:37 10° NNW 23:38:30 61° WSW 23:41:02 28° S
Landsat 5 3.6 23:37:16 31° S 23:39:07 62° WSW 23:43:11 10° NNW
Genesis I 3.1 23:39:10 34° SSW 23:40:45 71° SE 23:44:41 10° NE
Cosmos 2297 4.3 23:37:55 24° SSE 23:40:58 44° ESE 23:46:18 10° NE
Cosmos 1869 Rocket 3.5 23:40:37 30° SSW 23:42:43 76° W 23:47:05 10° N
Cosmos 2082 Rocket 2.1 23:41:25 10° NNW 23:47:04 80° WSW 23:51:06 20° SSE
Cosmos 44 Rocket 3.7 23:50:34 27° S 23:52:49 48° ESE 23:57:25 10° NE
Resurs 1-4 Rocket 4.5 23:53:28 10° ENE 23:55:44 13° E 23:57:59 10° ESE
